{"data":{"norad_id":62421,"epoch":"2026-09-21T04:04:37.024608Z","epoch_age_seconds":116462,"freshness":"FRESH","line1":"1 62421U 24249N   26264.16987297  .00123161  00000+0  94901-3 0  9994","line2":"2 62421  42.9997  69.4492 0001233 262.9592  97.1135 15.70843730100224","mean_motion":15.7084373,"eccentricity":0.0001233,"inclination_deg":42.9997,"raan_deg":69.4492,"arg_perigee_deg":262.9592,"mean_anomaly_deg":97.1135,"bstar":0.00094901,"rev_number":10022,"period_min":91.670480805879,"perigee_km":355.65402173289,"apogee_km":357.31477937027,"semimajor_km":6734.6214005516,"source":"CELESTRAK","updated_at":"2026-09-22T09:00:49.577792Z"}}